When you browse on this site, cookies collect data to enhance your experience and personalize the content and advertising you see.
Visit our Privacy Policy to learn more. By continuing to use the site, you agree to this use of cookies and data.
  • In Romania
  • List of Countries
  • For 7 days
  • Water Temperature
  • Satellite Maps
  • Weather Map
  • Weather Widgets
  • user-avatar
    Login

    Hourly Weather Pecs

    Today, 17 January, Thursday

    Time Temperature Precipitation Wind Pressure Humidity
    00:00 +3°C° 0 mm 4 mps 741 mmHg 83%
    01:00 +3°C° 0 mm 4 mps 741 mmHg 82%
    02:00 +2°C° 0 mm 5 mps 741 mmHg 82%
    03:00 +2°C° 0 mm 5 mps 741 mmHg 82%
    04:00 +2°C° 0 mm 5 mps 740 mmHg 82%
    05:00 +2°C° 0 mm 5 mps 740 mmHg 82%
    06:00 +2°C° 0 mm 5 mps 740 mmHg 82%
    07:00 +2°C° 0 mm 5 mps 740 mmHg 81%
    08:00 +3°C° 0 mm 6 mps 740 mmHg 78%
    09:00 +4°C° 0 mm 6 mps 741 mmHg 74%
    10:00 +5°C° 0 mm 6 mps 741 mmHg 70%
    11:00 +6°C° 0 mm 7 mps 741 mmHg 67%
    12:00 +8°C° 0 mm 7 mps 741 mmHg 64%
    13:00 +9°C° 0 mm 7 mps 740 mmHg 61%
    14:00 +8°C° 0 mm 6 mps 740 mmHg 62%
    15:00 +8°C° 0 mm 5 mps 740 mmHg 64%
    16:00 +7°C° 0 mm 4 mps 740 mmHg 65%
    17:00 +6°C° 0 mm 4 mps 740 mmHg 68%
    18:00 +5°C° 0 mm 4 mps 739 mmHg 72%
    19:00 +5°C° 0 mm 4 mps 739 mmHg 75%
    20:00 +4°C° 0 mm 4 mps 739 mmHg 76%
    21:00 +4°C° 0 mm 4 mps 739 mmHg 77%
    22:00 +4°C° 0 mm 3 mps 739 mmHg 79%
    23:00 +4°C° 0 mm 3 mps 739 mmHg 79%

    Tomorrow, 18 January, Friday

    Time Temperature Precipitation Wind Pressure Humidity
    00:00 +4°C° 0 mm 3 mps 739 mmHg 79%
    01:00 +3°C° 0 mm 3 mps 739 mmHg 79%
    02:00 +4°C° 0 mm 2 mps 739 mmHg 81%
    03:00 +3°C° 0 mm 2 mps 739 mmHg 83%
    04:00 +4°C° 0 mm 1 mps 738 mmHg 85%
    05:00 +4°C° 0.7 mm 1 mps 739 mmHg 86%
    06:00 +3°C° 0.7 mm 2 mps 739 mmHg 86%
    07:00 +2°C° 0.7 mm 3 mps 740 mmHg 86%
    08:00 +2°C° 0.2 mm 3 mps 740 mmHg 83%
    09:00 +1°C° 0.2 mm 4 mps 741 mmHg 80%
    10:00 +3°C° 0.2 mm 4 mps 741 mmHg 77%
    11:00 +1°C° 0.3 mm 4 mps 742 mmHg 76%
    12:00 +1°C° 0.3 mm 4 mps 742 mmHg 76%
    13:00 +1°C° 0.3 mm 4 mps 743 mmHg 75%
    14:00 +1°C° 0 mm 4 mps 743 mmHg 74%
    15:00 +2°C° 0 mm 3 mps 744 mmHg 73%
    16:00 +1°C° 0 mm 3 mps 745 mmHg 72%
    17:00 +2°C° 0 mm 2 mps 745 mmHg 73%
    18:00 +2°C° 0 mm 2 mps 746 mmHg 73%
    19:00 +2°C° 0 mm 1 mps 746 mmHg 73%
    20:00 +2°C° 0 mm 1 mps 747 mmHg 74%
    21:00 +2°C° 0 mm 1 mps 747 mmHg 75%
    22:00 +1°C° 0 mm 1 mps 747 mmHg 76%
    23:00 +1°C° 0 mm 1 mps 747 mmHg 77%

    Day after tomorrow, 19 January, Saturday

    Time Temperature Precipitation Wind Pressure Humidity
    00:00 +1°C° 0 mm 1 mps 747 mmHg 77%
    01:00 +1°C° 0 mm 1 mps 747 mmHg 77%
    02:00 0°C° 0 mm 1 mps 747 mmHg 76%
    03:00 0°C° 0 mm 1 mps 747 mmHg 76%
    04:00 0°C° 0 mm 1 mps 746 mmHg 75%
    05:00 -1°C° 0 mm 1 mps 746 mmHg 74%
    06:00 -3°C° 0 mm 2 mps 746 mmHg 74%
    07:00 -3°C° 0 mm 2 mps 747 mmHg 74%
    08:00 -2°C° 0 mm 2 mps 747 mmHg 70%
    09:00 -2°C° 0 mm 2 mps 747 mmHg 67%
    10:00 +1°C° 0 mm 1 mps 747 mmHg 64%
    11:00 -1°C° 0.1 mm 2 mps 746 mmHg 66%
    12:00 -1°C° 0.1 mm 2 mps 746 mmHg 67%
    13:00 +1°C° 0.1 mm 2 mps 746 mmHg 68%
    14:00 -1°C° 0.1 mm 2 mps 745 mmHg 72%
    15:00 -1°C° 0.1 mm 2 mps 745 mmHg 76%
    16:00 -1°C° 0.1 mm 3 mps 744 mmHg 79%
    17:00 -1°C° 0.1 mm 3 mps 744 mmHg 82%
    18:00 -1°C° 0.1 mm 3 mps 744 mmHg 84%
    19:00 -1°C° 0.1 mm 3 mps 744 mmHg 86%
    20:00 -2°C° 0 mm 2 mps 744 mmHg 88%
    21:00 -2°C° 0 mm 2 mps 744 mmHg 89%
    22:00 -2°C° 0 mm 2 mps 743 mmHg 90%
    23:00 0°C° 0.1 mm 1 mps 743 mmHg 91%

    20 January, Sunday

    Time Temperature Precipitation Wind Pressure Humidity
    00:00 0°C° 0.1 mm 1 mps 743 mmHg 92%
    01:00 0°C° 0.1 mm 1 mps 743 mmHg 93%
    02:00 0°C° 0.2 mm 1 mps 743 mmHg 94%
    03:00 0°C° 0.2 mm 1 mps 742 mmHg 95%
    04:00 -1°C° 0.2 mm 0 mps 742 mmHg 96%
    05:00 0°C° 0.1 mm 1 mps 742 mmHg 96%
    06:00 0°C° 0.1 mm 1 mps 742 mmHg 96%
    07:00 0°C° 0.1 mm 1 mps 743 mmHg 95%
    08:00 0°C° 0 mm 1 mps 743 mmHg 93%
    09:00 +1°C° 0 mm 1 mps 743 mmHg 90%
    10:00 -1°C° 0 mm 2 mps 743 mmHg 87%
    11:00 +1°C° 0 mm 2 mps 743 mmHg 85%
    12:00 +1°C° 0 mm 2 mps 743 mmHg 82%
    13:00 +1°C° 0 mm 2 mps 743 mmHg 79%
    14:00 +1°C° 0 mm 2 mps 743 mmHg 80%
    15:00 +1°C° 0 mm 2 mps 743 mmHg 80%
    16:00 +2°C° 0 mm 1 mps 743 mmHg 81%
    17:00 +1°C° 0 mm 1 mps 744 mmHg 82%
    18:00 0°C° 0 mm 1 mps 744 mmHg 84%
    19:00 0°C° 0 mm 1 mps 744 mmHg 85%
    20:00 -1°C° 0 mm 1 mps 745 mmHg 86%
    21:00 -1°C° 0 mm 1 mps 745 mmHg 87%
    22:00 -1°C° 0 mm 1 mps 745 mmHg 88%
    23:00 -1°C° 0 mm 1 mps 745 mmHg 88%

    21 January, Monday

    Time Temperature Precipitation Wind Pressure Humidity
    00:00 -1°C° 0 mm 1 mps 746 mmHg 88%
    01:00 -1°C° 0 mm 1 mps 746 mmHg 88%
    02:00 -2°C° 0 mm 1 mps 746 mmHg 88%
    03:00 -2°C° 0 mm 1 mps 746 mmHg 87%
    04:00 -2°C° 0 mm 1 mps 746 mmHg 87%
    05:00 -2°C° 0 mm 1 mps 746 mmHg 87%
    06:00 -2°C° 0 mm 1 mps 746 mmHg 86%
    07:00 -2°C° 0 mm 1 mps 746 mmHg 86%
    08:00 -1°C° 0 mm 1 mps 747 mmHg 80%
    09:00 0°C° 0 mm 1 mps 747 mmHg 74%
    10:00 +1°C° 0 mm 1 mps 747 mmHg 68%
    11:00 +1°C° 0 mm 1 mps 747 mmHg 64%
    12:00 +1°C° 0 mm 2 mps 747 mmHg 59%
    13:00 +1°C° 0 mm 2 mps 747 mmHg 54%
    14:00 +2°C° 0 mm 1 mps 747 mmHg 57%
    15:00 +1°C° 0 mm 1 mps 747 mmHg 60%
    16:00 +1°C° 0 mm 1 mps 746 mmHg 63%
    17:00 0°C° 0 mm 1 mps 746 mmHg 65%
    18:00 -1°C° 0 mm 1 mps 747 mmHg 68%
    19:00 -1°C° 0 mm 1 mps 747 mmHg 70%
    20:00 -2°C° 0 mm 1 mps 746 mmHg 72%
    21:00 -2°C° 0 mm 1 mps 746 mmHg 73%
    22:00 -2°C° 0 mm 1 mps 746 mmHg 75%
    23:00 -2°C° 0 mm 1 mps 746 mmHg 76%

    22 January, Tuesday

    Time Temperature Precipitation Wind Pressure Humidity
    00:00 -2°C° 0 mm 1 mps 746 mmHg 78%
    01:00 -2°C° 0 mm 1 mps 745 mmHg 79%
    02:00 -4°C° 0 mm 2 mps 745 mmHg 81%
    03:00 -4°C° 0 mm 2 mps 744 mmHg 82%
    04:00 -4°C° 0 mm 2 mps 744 mmHg 83%
    05:00 -4°C° 0 mm 2 mps 744 mmHg 86%
    06:00 -5°C° 0 mm 3 mps 743 mmHg 88%
    07:00 -5°C° 0 mm 3 mps 743 mmHg 90%
    08:00 -5°C° 0.2 mm 3 mps 742 mmHg 89%
    09:00 -5°C° 0.2 mm 4 mps 741 mmHg 88%
    10:00 -5°C° 0.2 mm 5 mps 741 mmHg 88%
    11:00 -5°C° 1 mm 5 mps 740 mmHg 89%
    12:00 -5°C° 1 mm 5 mps 739 mmHg 91%
    13:00 -5°C° 1 mm 6 mps 737 mmHg 93%
    14:00 -5°C° 1.3 mm 5 mps 737 mmHg 94%
    15:00 -5°C° 1.3 mm 5 mps 736 mmHg 94%
    16:00 -4°C° 1.3 mm 4 mps 735 mmHg 95%
    17:00 -4°C° 0.9 mm 4 mps 735 mmHg 95%
    18:00 -5°C° 0.9 mm 3 mps 735 mmHg 96%
    19:00 -5°C° 0.9 mm 3 mps 734 mmHg 96%
    20:00 -5°C° 0.2 mm 3 mps 734 mmHg 96%
    21:00 -4°C° 0.2 mm 2 mps 734 mmHg 96%
    22:00 -4°C° 0.2 mm 2 mps 734 mmHg 96%
    23:00 -4°C° 0 mm 2 mps 735 mmHg 96%
    Show more